Latest Coastal Weather Observations for Tewantin

IDQ60701

Issued at 9:31 pm EST Saturday 27 May 2017 (issued every 10 minutes, with the page automatically refreshed every 10 minutes)

About coastal observations | Map of coastal stations | Coastal observations for QLD | Marine services | Other Formats
Station Details ID: 040908 Name: TEWANTIN RSL PARK Lat: -26.39 Lon: 153.04 Height: 6.4 m
Data from the previous 72 hours. | See also: Recent months at Tewantin
Date/Time
EST
Temp
°C
Wind Pressure Rain since
9am
mm
Weather Cloud Vis
km
Sea
Height
m
Swell
Dir  Spd
kts
Gust
kts
hPa Trend Height
m
Period
s
Dir
27/09:30pm 16.4 SSW 1 4 1020.5 - 0.0 - - - - - - -
27/09:00pm 16.6 CALM 0 0 1020.7 - 0.0 - - - - - - -
27/08:30pm 16.9 SSW 1 3 1020.6 - 0.0 - - - - - - -
27/08:00pm 17.2 CALM 0 0 1020.5 - 0.0 - - - - - - -
27/07:30pm 17.6 SW 1 3 1020.4 - 0.0 - - - - - - -
27/07:00pm 18.1 SW 3 5 1020.3 - 0.0 - - - - - - -
27/06:30pm 18.5 CALM 0 0 1020.0 - 0.0 - - - - - - -
27/06:00pm 18.9 CALM 0 0 1019.6 - 0.0 - - - - - - -
27/05:30pm 19.8 CALM 0 0 1019.2 - 0.0 - - - - - - -
27/05:00pm 20.3 ENE 3 4 1019.0 - 0.0 - - - - - - -
27/04:30pm 21.1 E 3 5 1018.9 - 0.0 - - - - - - -
27/04:00pm 21.4 E 5 7 1018.8 - 0.0 - - - - - - -
27/03:30pm 21.1 ENE 5 7 1018.7 - 0.0 - - - - - - -
27/03:00pm 21.8 NE 5 8 1018.7 - 0.0 - - - - - - -
27/02:30pm 21.5 ENE 6 8 1018.7 - 0.0 - - - - - - -
27/02:00pm 21.9 ESE 6 10 1018.8 - 0.0 - - - - - - -
27/01:30pm 21.8 E 9 14 1019.1 - 0.0 - - - - - - -
27/01:00pm 21.5 ESE 8 12 1019.3 - 0.0 - - - - - - -
27/12:30pm 21.8 ESE 7 10 1019.8 - 0.0 - - - - - - -
27/12:00pm 22.4 E 7 11 1020.2 - 0.0 - - - - - - -
27/11:30am 22.3 ESE 7 12 1020.6 - 0.0 - - - - - - -
27/11:00am 22.4 SSE 6 9 1020.9 - 0.0 - - - - - - -
27/10:30am 22.0 S 5 9 1021.4 - 0.0 - - - - - - -
27/10:00am 21.1 SSW 5 7 1021.7 - 0.0 - - - - - - -
27/09:30am 20.9 S 5 8 1021.9 - 0.0 - - - - - - -
27/09:00am 20.3 SSW 5 9 1021.6 - 0.0 - - - - - - -
27/08:30am 18.9 S 6 11 1021.7 - 0.0 - - - - - - -
27/08:00am 16.6 SSW 5 7 1021.8 - 0.0 - - - - - - -
27/07:30am 16.0 S 4 6 1021.4 - 0.0 - - - - - - -
27/07:00am 14.3 SSW 3 4 1021.1 - 0.0 - - - - - - -
27/06:30am 13.8 S 3 5 1020.8 - 0.0 - - - - - - -
27/06:00am 13.9 SSW 3 5 1020.6 - 0.0 - - - - - - -
27/05:30am 13.8 CALM 0 0 1020.1 - 0.0 - - - - - - -
27/05:00am 13.9 CALM 0 0 1019.7 - 0.0 - - - - - - -
27/04:30am 13.7 CALM 0 0 1019.6 - 0.0 - - - - - - -
27/04:00am 14.0 CALM 0 0 1019.5 - 0.0 - - - - - - -
27/03:30am 14.0 CALM 0 0 1019.5 - 0.0 - - - - - - -
27/03:00am 14.2 CALM 0 0 1019.7 - 0.0 - - - - - - -
27/02:30am 14.2 CALM 0 0 1019.9 - 0.0 - - - - - - -
27/02:00am 14.5 CALM 0 0 1020.0 - 0.0 - - - - - - -
27/01:30am 14.5 CALM 0 0 1020.2 - 0.0 - - - - - - -
27/01:00am 14.5 CALM 0 0 1020.4 - 0.0 - - - - - - -
27/12:30am 14.8 CALM 0 0 1020.5 - 0.0 - - - - - - -
27/12:00am 15.0 CALM 0 0 1020.6 - 0.0 - - - - - - -
 
Date/Time
EST
Temp
°C
Wind Pressure Rain since
9am
mm
Weather Cloud Vis
km
Sea
Height
m
Swell
Dir  Spd
kts
Gust
kts
hPa Trend Height
m
Period
s
Dir
26/11:30pm 15.4 CALM 0 0 1020.6 - 0.0 - - - - - - -
26/11:00pm 15.8 CALM 0 0 1020.6 - 0.0 - - - - - - -
26/10:30pm 16.1 CALM 0 0 1020.7 - 0.0 - - - - - - -
26/10:00pm 16.3 CALM 0 0 1020.7 - 0.0 - - - - - - -
26/09:30pm 16.2 CALM 0 0 1020.7 - 0.0 - - - - - - -
26/09:00pm 16.6 CALM 0 0 1020.5 - 0.0 - - - - - - -
26/08:30pm 17.0 CALM 0 0 1020.3 - 0.0 - - - - - - -
26/08:00pm 17.4 CALM 0 0 1020.0 - 0.0 - - - - - - -
26/07:30pm 17.9 SSW 4 4 1019.7 - 0.0 - - - - - - -
26/07:00pm 18.3 SW 2 4 1019.5 - 0.0 - - - - - - -
26/06:30pm 18.9 SW 3 4 1019.0 - 0.0 - - - - - - -
26/06:00pm 19.7 SW 2 4 1018.8 - 0.0 - - - - - - -
26/05:30pm 20.4 CALM 0 0 1018.4 - 0.0 - - - - - - -
26/05:00pm 21.0 ESE 5 7 1018.3 - 0.0 - - - - - - -
26/04:30pm 21.6 ESE 6 9 1018.2 - 0.0 - - - - - - -
26/04:00pm 21.8 ESE 6 8 1018.1 - 0.0 - - - - - - -
26/03:30pm 21.9 ESE 6 10 1018.1 - 0.0 - - - - - - -
26/03:00pm 22.2 ESE 6 9 1018.2 - 0.0 - - - - - - -
26/02:30pm 22.5 ESE 6 9 1018.4 - 0.0 - - - - - - -
26/02:00pm 23.0 ESE 7 9 1018.4 - 0.0 - - - - - - -
26/01:30pm 22.6 ESE 7 10 1018.6 - 0.0 - - - - - - -
26/01:00pm 23.0 SE 7 10 1019.0 - 0.0 - - - - - - -
26/12:30pm 22.6 ESE 8 11 1019.4 - 0.0 - - - - - - -
26/12:00pm 23.0 SE 7 11 1019.8 - 0.0 - - - - - - -
26/11:30am 23.2 SE 6 10 1020.3 - 0.0 - - - - - - -
26/11:00am 23.0 SE 5 25 1020.7 - 0.0 - - - - - - -
26/10:30am 22.7 S 6 8 1020.9 - 0.0 - - - - - - -
26/10:00am 22.7 SSW 5 9 1021.1 - 0.0 - - - - - - -
26/09:30am 21.7 S 6 9 1021.1 - 0.0 - - - - - - -
26/09:00am 21.0 S 5 8 1021.1 - 0.0 - - - - - - -
26/08:30am 20.1 SSW 5 7 1020.8 - 0.0 - - - - - - -
26/08:00am 19.2 SSW 4 7 1020.7 - 0.0 - - - - - - -
26/07:30am 17.5 SSW 3 7 1020.4 - 0.0 - - - - - - -
26/07:00am 16.2 CALM 0 0 1020.2 - 0.0 - - - - - - -
26/06:30am 15.6 S 1 4 1019.8 - 0.0 - - - - - - -
26/06:00am 15.8 SSW 3 5 1019.4 - 0.0 - - - - - - -
26/05:30am 16.2 SSW 4 7 1018.9 - 0.0 - - - - - - -
26/05:00am 16.3 S 5 7 1018.6 - 0.0 - - - - - - -
26/04:30am 16.3 S 4 6 1018.4 - 0.0 - - - - - - -
26/04:00am 16.2 S 5 7 1018.2 - 0.0 - - - - - - -
26/03:30am 15.5 S 3 4 1018.3 - 0.0 - - - - - - -
26/03:00am 15.7 CALM 0 0 1018.5 - 0.0 - - - - - - -
26/02:30am 16.0 CALM 0 0 1018.7 - 0.0 - - - - - - -
26/02:00am 16.4 SSW 1 3 1018.9 - 0.0 - - - - - - -
26/01:30am 17.0 SSW 1 3 1019.1 - 0.0 - - - - - - -
26/01:00am 17.3 SW 3 4 1019.4 - 0.0 - - - - - - -
26/12:30am 17.3 SSW 3 5 1019.5 - 0.0 - - - - - - -
26/12:00am 17.4 SSW 4 5 1019.6 - 0.0 - - - - - - -
 
Date/Time
EST
Temp
°C
Wind Pressure Rain since
9am
mm
Weather Cloud Vis
km
Sea
Height
m
Swell
Dir  Spd
kts
Gust
kts
hPa Trend Height
m
Period
s
Dir
25/11:30pm 17.6 SSW 2 4 1019.6 - 0.0 - - - - - - -
25/11:00pm 17.8 SSW 4 6 1019.6 - 0.0 - - - - - - -
25/10:30pm 18.1 SSW 5 6 1019.5 - 0.0 - - - - - - -
25/10:00pm 18.4 SSW 4 6 1019.7 - 0.0 - - - - - - -
25/09:30pm 18.5 SSW 5 6 1019.7 - 0.0 - - - - - - -
25/09:00pm 18.8 SSW 5 6 1019.6 - 0.0 - - - - - - -
25/08:30pm 18.7 SSW 4 6 1019.6 - 0.0 - - - - - - -
25/08:00pm 18.7 SSW 4 6 1019.6 - 0.0 - - - - - - -
25/07:30pm 19.0 SSW 4 6 1019.4 - 0.0 - - - - - - -
25/07:00pm 19.4 SSW 5 7 1019.1 - 0.0 - - - - - - -
25/06:30pm 19.9 SSW 4 7 1018.7 - 0.0 - - - - - - -
25/06:00pm 20.3 S 5 7 1018.5 - 0.0 - - - - - - -
25/05:30pm 20.7 SSE 5 8 1018.3 - 0.0 - - - - - - -
25/05:00pm 21.1 SSE 6 10 1018.0 - 0.0 - - - - - - -
25/04:30pm 21.6 SSE 7 12 1017.8 - 0.0 - - - - - - -
25/04:00pm 22.0 S 8 13 1017.5 - 0.0 - - - - - - -
25/03:30pm 22.3 SSE 8 14 1017.3 - 0.0 - - - - - - -
25/03:00pm 22.6 SSE 9 15 1017.1 - 0.0 - - - - - - -
25/02:30pm 22.8 SSE 7 11 1017.2 - 0.0 - - - - - - -
25/02:00pm 23.2 SE 7 13 1017.2 - 0.0 - - - - - - -
25/01:30pm 23.7 SSE 7 13 1017.2 - 0.0 - - - - - - -
25/01:00pm 24.1 SSE 7 12 1017.4 - 0.0 - - - - - - -
25/12:30pm 23.8 SE 8 14 1017.6 - 0.0 - - - - - - -
25/12:00pm 24.1 SSE 8 13 1017.9 - 0.0 - - - - - - -
25/11:30am 23.3 SSE 7 12 1018.2 - 0.0 - - - - - - -
25/11:00am 24.1 S 7 13 1018.3 - 0.0 - - - - - - -
25/10:30am 23.4 S 6 11 1018.5 - 0.0 - - - - - - -
25/10:00am 23.2 S 7 11 1018.7 - 0.0 - - - - - - -
25/09:30am 22.4 SSW 5 8 1018.8 - 0.0 - - - - - - -
25/09:00am 21.7 SSW 5 7 1018.7 - 0.0 - - - - - - -
25/08:30am 20.4 SSW 4 6 1018.7 - 0.0 - - - - - - -
25/08:00am 19.1 CALM 0 0 1018.4 - 0.0 - - - - - - -
25/07:30am 17.3 W 1 5 1018.2 - 0.0 - - - - - - -
25/07:00am 15.8 CALM 0 2 1017.8 - 0.0 - - - - - - -
25/06:30am 15.6 CALM 0 0 1017.6 - 0.0 - - - - - - -
25/06:00am 15.7 CALM 0 0 1017.2 - 0.0 - - - - - - -
25/05:30am 16.4 SSW 4 5 1016.7 - 0.0 - - - - - - -
25/05:00am 16.6 CALM 0 0 1016.3 - 0.0 - - - - - - -
25/04:30am 16.8 CALM 0 3 1016.0 - 0.0 - - - - - - -
25/04:00am 17.0 CALM 0 3 1015.9 - 0.0 - - - - - - -
25/03:30am 17.3 NW 1 4 1015.9 - 0.0 - - - - - - -
25/03:00am 17.4 CALM 0 3 1015.9 - 0.0 - - - - - - -
25/02:30am 17.3 WNW 2 4 1015.9 - 0.0 - - - - - - -
25/02:00am 17.7 WNW 4 6 1016.0 - 0.0 - - - - - - -
25/01:30am 17.7 NW 4 6 1016.1 - 0.0 - - - - - - -
25/01:00am 17.8 NNW 4 6 1016.3 - 0.0 - - - - - - -
25/12:30am 18.0 NNW 4 6 1016.5 - 0.0 - - - - - - -
25/12:00am 18.3 NW 4 6 1016.6 - 0.0 - - - - - - -
 
Date/Time
EST
Temp
°C
Wind Pressure Rain since
9am
mm
Weather Cloud Vis
km
Sea
Height
m
Swell
Dir  Spd
kts
Gust
kts
hPa Trend Height
m
Period
s
Dir
24/11:30pm 18.7 NNW 5 7 1016.7 - 0.0 - - - - - - -
24/11:00pm 18.6 NW 4 5 1016.8 - 0.0 - - - - - - -
24/10:30pm 18.9 N 5 6 1017.0 - 0.0 - - - - - - -
24/10:00pm 19.2 NNW 3 5 1017.0 - 0.0 - - - - - - -

Other Formats:

Comma delimited format used in spreadsheet applications
http://www.bom.gov.au/fwo/IDQ60701/IDQ60701.94570.axf

JavaScript Object Notation format (JSON) in row-major order
http://www.bom.gov.au/fwo/IDQ60701/IDQ60701.94570.json